TimeCDT,TemperatureF,Dew PointF,Humidity,Sea Level PressureIn,VisibilityMPH,Wind Direction,Wind SpeedMPH,Gust SpeedMPH,PrecipitationIn,Events,Conditions,WindDirDegrees,DateUTC
12:15 AM,74.5,69.3,84,29.96,10.0,Calm,Calm,-,N/A,,Clear,0,2013-10-15 05:15:00
2:35 AM,73.2,68.9,86,29.95,10.0,Calm,Calm,-,N/A,,Clear,0,2013-10-15 07:35:00
3:55 AM,72.9,68.9,87,29.93,10.0,Calm,Calm,-,N/A,,Clear,0,2013-10-15 08:55:00
4:15 AM,73.4,69.1,86,29.93,10.0,Calm,Calm,-,N/A,,Clear,0,2013-10-15 09:15:00
4:35 AM,72.9,68.7,87,29.93,10.0,Calm,Calm,-,N/A,,Clear,0,2013-10-15 09:35:00
4:55 AM,72.5,68.9,88,29.93,10.0,Calm,Calm,-,N/A,,Clear,0,2013-10-15 09:55:00
5:15 AM,72.3,68.5,88,29.92,10.0,Calm,Calm,-,N/A,,Clear,0,2013-10-15 10:15:00
5:35 AM,72.1,68.5,88,29.91,7.0,Calm,Calm,-,N/A,,Clear,0,2013-10-15 10:35:00
5:55 AM,72.3,68.7,88,29.91,10.0,Calm,Calm,-,N/A,,Clear,0,2013-10-15 10:55:00
6:15 AM,71.8,68.2,88,29.91,10.0,Calm,Calm,-,N/A,,Clear,0,2013-10-15 11:15:00
6:35 AM,71.8,68.2,88,29.91,10.0,Calm,Calm,-,N/A,,Clear,0,2013-10-15 11:35:00
6:55 AM,72.0,68.4,88,29.92,10.0,Calm,Calm,-,N/A,,Clear,0,2013-10-15 11:55:00
7:15 AM,72.1,68.7,89,29.92,10.0,Calm,Calm,-,N/A,,Clear,0,2013-10-15 12:15:00
7:35 AM,72.0,68.4,88,29.93,7.0,Calm,Calm,-,N/A,,Clear,0,2013-10-15 12:35:00
7:55 AM,71.4,68.0,89,29.94,7.0,Calm,Calm,-,N/A,,Clear,0,2013-10-15 12:55:00
8:15 AM,72.0,68.5,89,29.94,7.0,Calm,Calm,-,N/A,,Clear,0,2013-10-15 13:15:00
8:35 AM,73.4,69.8,88,29.95,10.0,Calm,Calm,-,N/A,,Clear,0,2013-10-15 13:35:00
8:55 AM,75.7,70.7,84,29.95,10.0,Calm,Calm,-,N/A,,Clear,0,2013-10-15 13:55:00
9:55 AM,82.6,71.6,69,29.95,10.0,Calm,Calm,-,N/A,,Clear,0,2013-10-15 14:55:00
10:15 AM,83.8,70.7,64,29.96,7.0,SSE,10.4,-,N/A,,Clear,150,2013-10-15 15:15:00
10:35 AM,84.9,71.1,63,29.95,7.0,SE,12.7,-,N/A,,Scattered Clouds,140,2013-10-15 15:35:00
10:55 AM,86.4,70.7,59,29.95,5.0,SSE,9.2,17.3,N/A,,Haze,160,2013-10-15 15:55:00
11:15 AM,86.4,70.2,58,29.95,7.0,SSE,11.5,-,N/A,,Scattered Clouds,160,2013-10-15 16:15:00
11:35 AM,87.6,69.4,55,29.95,7.0,Calm,Calm,-,N/A,,Mostly Cloudy,0,2013-10-15 16:35:00
11:55 AM,88.3,69.1,53,29.94,7.0,SSE,8.1,-,N/A,,Mostly Cloudy,160,2013-10-15 16:55:00
12:15 PM,88.9,68.0,50,29.94,7.0,Calm,Calm,-,N/A,,Scattered Clouds,0,2013-10-15 17:15:00
12:35 PM,89.4,67.6,48,29.93,7.0,SSE,8.1,-,N/A,,Scattered Clouds,160,2013-10-15 17:35:00
12:55 PM,90.5,68.2,48,29.91,7.0,SE,9.2,16.1,N/A,,Scattered Clouds,140,2013-10-15 17:55:00
1:15 PM,90.3,68.5,49,29.90,7.0,South,11.5,-,N/A,,Scattered Clouds,170,2013-10-15 18:15:00
1:35 PM,90.1,67.6,47,29.89,7.0,Calm,Calm,-,N/A,,Scattered Clouds,0,2013-10-15 18:35:00
1:55 PM,91.6,66.6,44,29.87,7.0,South,9.2,-,N/A,,Scattered Clouds,190,2013-10-15 18:55:00
2:15 PM,91.8,67.5,45,29.87,7.0,Calm,Calm,-,N/A,,Scattered Clouds,0,2013-10-15 19:15:00
2:35 PM,92.8,66.9,42,29.86,5.0,Calm,Calm,-,N/A,,Haze,0,2013-10-15 19:35:00
2:55 PM,91.4,66.7,44,29.85,5.0,SE,6.9,-,N/A,,Haze,140,2013-10-15 19:55:00
3:15 PM,92.3,65.8,42,29.85,7.0,SSE,5.8,-,N/A,,Scattered Clouds,160,2013-10-15 20:15:00
3:35 PM,93.4,64.9,39,29.84,7.0,SSE,6.9,-,N/A,,Scattered Clouds,150,2013-10-15 20:35:00
3:55 PM,93.2,63.3,37,29.83,7.0,SE,9.2,16.1,N/A,,Scattered Clouds,130,2013-10-15 20:55:00
4:15 PM,93.2,63.5,37,29.83,7.0,Calm,Calm,-,N/A,,Clear,0,2013-10-15 21:15:00
4:35 PM,92.7,65.3,40,29.83,7.0,SSE,8.1,-,N/A,,Scattered Clouds,150,2013-10-15 21:35:00
4:55 PM,93.4,66.4,41,29.82,7.0,ESE,11.5,-,N/A,,Mostly Cloudy,110,2013-10-15 21:55:00
5:15 PM,93.0,65.7,40,29.82,7.0,SSE,8.1,-,N/A,,Scattered Clouds,160,2013-10-15 22:15:00
5:35 PM,91.8,66.6,43,29.82,7.0,ESE,11.5,17.3,N/A,,Clear,120,2013-10-15 22:35:00
5:55 PM,91.0,67.1,45,29.82,10.0,ESE,10.4,18.4,N/A,,Clear,120,2013-10-15 22:55:00
6:15 PM,90.5,66.6,45,29.82,7.0,ESE,12.7,18.4,N/A,,Clear,120,2013-10-15 23:15:00
6:35 PM,89.6,66.7,47,29.83,7.0,SE,11.5,-,N/A,,Clear,130,2013-10-15 23:35:00
6:55 PM,87.8,68.2,52,29.83,7.0,SE,12.7,16.1,N/A,,Clear,140,2013-10-15 23:55:00
7:15 PM,86.2,68.9,56,29.84,7.0,SE,3.5,-,N/A,,Clear,140,2013-10-16 00:15:00
7:55 PM,84.4,70.0,62,29.85,10.0,SE,9.2,18.4,N/A,,Clear,140,2013-10-16 00:55:00
8:15 PM,83.5,70.3,64,29.86,10.0,SE,11.5,16.1,N/A,,Clear,140,2013-10-16 01:15:00
8:35 PM,83.1,70.3,65,29.87,10.0,Calm,Calm,-,N/A,,Clear,0,2013-10-16 01:35:00
8:55 PM,81.9,70.3,68,29.87,10.0,SE,8.1,-,N/A,,Clear,140,2013-10-16 01:55:00
9:15 PM,81.5,70.3,69,29.89,7.0,Calm,Calm,-,N/A,,Clear,0,2013-10-16 02:15:00
9:35 PM,81.1,71.1,71,29.90,10.0,Calm,Calm,-,N/A,,Clear,0,2013-10-16 02:35:00
9:55 PM,80.6,71.1,73,29.90,7.0,Calm,Calm,-,N/A,,Clear,0,2013-10-16 02:55:00
10:15 PM,79.7,71.2,75,29.90,7.0,Calm,Calm,-,N/A,,Clear,0,2013-10-16 03:15:00
10:35 PM,79.0,71.4,78,29.91,7.0,Calm,Calm,-,N/A,,Clear,0,2013-10-16 03:35:00
10:55 PM,78.8,71.6,78,29.91,10.0,Calm,Calm,-,N/A,,Clear,0,2013-10-16 03:55:00
11:15 PM,77.9,71.2,80,29.91,10.0,Calm,Calm,-,N/A,,Clear,0,2013-10-16 04:15:00
11:35 PM,77.7,71.4,81,29.90,10.0,Calm,Calm,-,N/A,,Clear,0,2013-10-16 04:35:00
11:55 PM,77.2,71.2,82,29.90,10.0,Calm,Calm,-,N/A,,Clear,0,2013-10-16 04:55:00